Regional Weather Roundup
Issued by NWS

Home | Current Version | Previous Version | Graphics & Text | Print | Product List | Glossary Off
Versions: 1 2 3 4 5 6 7 8 9 10 11 12 13 14 15 16 17 18 19 20 21 22 23 24 25 26 27 28 29 30 31 32 33 34 35 36 37 38 39 40 41 42 43 44 45 46 47 48 49 50

000
ASUS43 KDMX 041207
RWRIA

WEATHER ROUNDUP FOR IOWA
NATIONAL WEATHER SERVICE DES MOINES IA
700 AM CDT TUE AUG 04 2015

NOTE: "FAIR" INDICATES FEW OR NO CLOUDS BELOW 12,000 FEET WITH NO
SIGNIFICANT WEATHER AND/OR OBSTRUCTIONS TO VISIBILITY.

* - THESE STATIONS ARE NOT NWS STATIONS...THUS NOT UNDER NWS
QUALITY CONTROL.  THEY ALSO DO NOT REPORT WEATHER SUCH
AS PRECIPITATION OR FOG.

IAZ001>003-012>014-020>022-031>034-043>046-041300-
   NORTHWEST IOWA

CITY           SKY/WX    TMP DP  RH WIND       PRES   REMARKS
CARROLL *      CLEAR     63  61  94 CALM      30.01R
CHEROKEE *     CLOUDY    60  60 100 CALM      30.03R
DENISON *      CLOUDY    64  63  94 CALM      30.01R FOG
LE MARS *      PTCLDY    61  61 100 CALM      30.03R
ORANGE CITY *  CLEAR     63  57  82 E5        30.03R
SHELDON *      CLEAR     57  55  94 CALM      30.02R
SIOUX CITY     CLOUDY    67  60  78 E5        30.01R
6HR MIN TEMP:  65; 6HR MAX TEMP:  70;

SPENCER        CLOUDY    55  52  89 CALM      30.03R
6HR MIN TEMP:  54; 6HR MAX TEMP:  60;

STORM LAKE *   CLEAR     63  57  82 NE5       30.04R
$$

IAZ055>058-069>071-079>083-090>094-041300-
   SOUTHWEST IOWA

CITY           SKY/WX    TMP DP  RH WIND       PRES   REMARKS
ATLANTIC *     CLOUDY    64  63  94 NE5       29.99F
AUDUBON *      CLOUDY    64  61  88 CALM      30.02R
CLARINDA *     CLOUDY    68  64  88 CALM      29.99R
COUNCIL BLFS * CLOUDY    66  63  88 N3        30.03R
CRESTON *      MOCLDY    64  63  94 SE3       30.00S
HARLAN  *      CLOUDY    64  64 100 CALM      30.04R
LAMONI         MOCLDY    67  64  90 CALM      29.99R
6HR MIN TEMP:  66; 6HR MAX TEMP:  71;

RED OAK *      LGT RAIN  66  64  94 CALM      29.99S
SHENANDOAH *   CLOUDY    68  64  88 NE6       29.97R
$$

IAZ047>049-059>061-072>074-084-041300-
   CENTRAL IOWA

CITY           SKY/WX    TMP DP  RH WIND       PRES   REMARKS
AMES           CLOUDY    60  58  92 CALM      30.00S
6HR MIN TEMP:  58; 6HR MAX TEMP:  62;

ANKENY *         N/A    N/A N/A N/A N7        30.00R
CHARITON *     CLEAR     64  61  88 CALM      29.99R
DES MOINES     CLOUDY    69  59  70 CALM      29.98S
6HR MIN TEMP:  66; 6HR MAX TEMP:  70;

GRINNELL*      MOCLDY    63  57  82 CALM      30.01S
KNOXVILLE *    CLEAR     66  57  72 CALM      29.97F
MARSHALLTOWN   MOCLDY    60  59  96 CALM      30.00R
6HR MIN TEMP:  56; 6HR MAX TEMP:  62;

PELLA *        MOCLDY    62  62 100 CALM      30.00S
PERRY *          N/A     64  63  94 NE3       30.01R
$$

IAZ004>006-015-016-023>025-035-036-041300-
   NORTH CENTRAL IOWA

CITY           SKY/WX    TMP DP  RH WIND       PRES   REMARKS
ALGONA *       CLEAR     57  54  88 N5        30.03R
CLARION *      CLEAR     55  54  94 CALM      30.02R
ESTHERVILLE    CLOUDY    53  51  93 SW6       30.03R
6HR MIN TEMP:  52; 6HR MAX TEMP:  58;

FORT DODGE *   CLOUDY    57  55  94 CALM      30.03R
MASON CITY     PTCLDY    57  54  89 W6        30.04R
6HR MIN TEMP:  54; 6HR MAX TEMP:  60;

FOREST CITY *  CLEAR     52  52 100 CALM      30.03R
IOWA FALLS *     N/A     56  54  91 CALM      30.02S
$$

IAZ007>011-017>019-026>030-037>042-050>054-066-041300-
   NORTHEAST IOWA

CITY           SKY/WX    TMP DP  RH WIND       PRES   REMARKS
CEDAR RAPIDS   PTCLDY    58  58 100 CALM      29.99S
6HR MIN TEMP:  55; 6HR MAX TEMP:  61;

CHARLES CITY * CLEAR     55  55 100 CALM      30.02R
CLINTON *      SUNNY     55  55 100 NW3       30.02R
DECORAH *      CLEAR     57  54  88 CALM      29.99R
DUBUQUE        CLEAR     56  54  93 S5        30.00R
6HR MIN TEMP:  51; 6HR MAX TEMP:  60;

MONTICELLO *   CLEAR     55  54  94 CALM      29.99S
OELWEIN *      CLEAR     59  57  94 CALM      30.01R
WATERLOO       PTCLDY    58  55  90 CALM      30.00R
6HR MIN TEMP:  53; 6HR MAX TEMP:  60;

$$

IAZ064-065-067-068-078-041300-
   EAST CENTRAL IOWA

CITY           SKY/WX    TMP DP  RH WIND       PRES   REMARKS
DAVENPORT      CLEAR     58  56  93 W5        30.00R
6HR MIN TEMP:  54; 6HR MAX TEMP:  59;

IOWA CITY      PTCLDY    60  57  89 W3        30.00S
6HR MIN TEMP:  58; 6HR MAX TEMP:  63;

MT. PLEASANT * MOCLDY    64  60  86 CALM      29.99S
MUSCATINE *    PTCLDY    61  57  88 CALM      29.99F
QUAD CITIES    CLEAR     60  57  89 SW3       29.99R
6HR MIN TEMP:  57; 6HR MAX TEMP:  63;

$$

IAZ062-063-075>077-085>089-095>099-041300-
   SOUTHEAST IOWA

CITY           SKY/WX    TMP DP  RH WIND       PRES   REMARKS
BURLINGTON     PTCLDY    64  61  90 CALM      29.99R
6HR MIN TEMP:  61; 6HR MAX TEMP:  64;

FAIRFIELD *    CLEAR     61  59  94 CALM      29.99S
FORT MADISON * CLEAR     61  61 100 CALM      29.99S
KEOKUK *       PTCLDY    64  63  94 CALM      29.98R
OSKALOOSA *      N/A     60  59  96 CALM      29.99F
CENTERVILLE *  CLEAR     61  59  94 E5        29.99F
OTTUMWA        MOCLDY    62  61  96 CALM      29.98S
6HR MIN TEMP:  59; 6HR MAX TEMP:  64;

WASHINGTON *   MOCLDY    63  61  94 CALM      30.00F
$$

ABBREVIATIONS USED IN REMARKS
   TC - TEMPERATURES IN CELSIUS
  WCI - WIND CHILL INDEX
   HX - HEAT INDEX
  VSB - VISIBILITY
$$



USA.gov is the U.S. government's official web portal to all federal, state and local government web resources and services.